Date,TemperatureHighF,TemperatureAvgF,TemperatureLowF,DewpointHighF,DewpointAvgF,DewpointLowF,HumidityHigh,HumidityAvg,HumidityLow,PressureMaxIn,PressureMinIn,WindSpeedMaxMPH,WindSpeedAvgMPH,GustSpeedMaxMPH,PrecipitationSumIn
2013-7-1,102,91,68,73,68,60,78,47,33,29.81,29.75,2,0,5,0.02
2013-7-2,100,89,76,73,67,59,69,48,34,29.83,29.77,3,2,8,0.00
2013-7-3,102,92,78,75,70,63,65,49,38,29.85,29.68,2,0,4,0.00
2013-7-4,105,94,75,74,69,58,66,46,30,29.72,29.57,3,0,6,0.00
2013-7-5,84,77,66,62,59,55,68,54,44,29.71,29.63,5,2,9,0.00
2013-7-6,86,78,67,63,60,55,70,53,42,29.76,29.67,2,1,6,0.00
2013-7-7,91,82,64,66,56,45,74,45,20,29.80,29.72,2,0,5,0.00
2013-7-8,92,82,64,63,56,46,70,43,21,29.91,29.86,2,0,4,0.00
2013-7-9,98,89,69,65,58,51,66,37,21,30.01,29.87,1,0,4,0.00
2013-7-10,95,85,66,67,59,53,67,44,27,29.92,29.80,2,1,6,0.00
2013-7-11,87,77,60,61,56,52,76,50,33,29.89,29.79,3,1,10,0.00
2013-7-12,87,75,58,65,58,52,84,57,35,29.91,29.80,2,0,5,0.00
2013-7-13,93,84,69,65,57,48,62,42,22,29.93,29.83,1,0,4,0.00
2013-7-14,92,84,68,65,60,54,63,44,31,29.95,29.81,2,0,5,0.00
2013-7-15,84,74,61,62,57,52,73,57,44,29.85,29.73,4,1,9,0.00
2013-7-16,78,71,59,60,56,52,77,60,48,29.94,29.88,5,2,13,0.00
2013-7-17,89,81,63,63,59,54,77,49,31,30.08,29.96,1,0,5,0.00
2013-7-18,94,83,63,66,59,55,78,48,28,30.02,29.86,2,0,6,0.02
2013-7-19,96,84,59,68,62,54,86,50,29,29.91,29.73,2,0,4,0.00
2013-7-20,96,84,68,69,63,56,73,51,33,29.80,29.63,2,0,5,0.00
2013-7-21,92,84,72,66,62,54,64,48,39,29.77,29.68,3,1,9,0.00
2013-7-22,89,82,72,62,57,50,62,43,31,29.92,29.84,4,1,7,0.00
2013-7-23,89,82,72,63,59,56,58,46,37,29.97,29.88,2,0,5,0.00
2013-7-24,97,88,72,65,62,57,68,43,31,29.94,29.81,1,0,4,0.00
2013-7-25,94,84,68,68,63,56,71,50,38,29.93,29.84,3,1,10,0.00
2013-7-26,94,79,62,68,61,54,77,55,39,30.03,29.89,2,0,6,0.00
2013-7-27,90,84,68,66,62,56,67,49,40,29.87,29.76,3,1,5,0.00
2013-7-28,87,76,60,65,60,52,78,59,45,29.82,29.71,4,1,10,0.02
2013-7-29,80,72,61,61,57,54,77,61,49,29.92,29.87,4,2,10,0.00
2013-7-30,88,78,63,66,59,49,75,53,28,30.07,29.94,1,0,5,0.00
2013-7-31,87,78,65,63,59,53,73,53,40,30.03,29.89,3,1,9,0.00